This demonstration page uses our WeatherBlox Daily Observations layout. Learn more.

Left ArrowRight Arrow

39.92423, -83.80882

Hourly Observations for March 21, 2021

Temp ( °F °C ) Dew Point ( °F °C ) Humidity (%) Winds ( mph kmh ) Pressure ( in mb ) Visibility ( mi km ) Precip ( " mm )
12:56 am 00:56 Clear 37 2.8 25 -3.9 62 62 ENE 5 7 30.45 1031 10 16 N/A
1:56 am 01:56 Clear 36 2.2 23 -5 59 59 E 5 7 30.44 1031 10 16 N/A
2:56 am 02:56 Clear 34 1.1 23 -5 64 64 E 5 7 30.43 1031 10 16 N/A
3:56 am 03:56 Clear 33 0.6 24 -4.4 70 70 E 7 11 30.42 1030 10 16 N/A
4:56 am 04:56 Clear 34 1.1 20 -6.7 56 56 E 8 13 30.42 1030 10 16 N/A
5:56 am 05:56 Clear 33 0.6 20 -6.7 58 58 E 5 7 30.42 1030 10 16 N/A
6:56 am 06:56 Clear 34 1.1 20 -6.7 56 56 E 7 11 30.43 1031 10 16 N/A
7:56 am 07:56 Sunny 31 -0.6 21 -6.1 67 67 E 5 7 30.45 1031 10 16 N/A
8:56 am 08:56 Sunny 38 3.3 30 -1.1 73 73 ESE 6 9 30.45 1031 10 16 N/A
9:56 am 09:56 Sunny 47 8.3 25 -3.9 42 42 SE 7 11 30.46 1032 10 16 N/A
10:56 am 10:56 Sunny 50 10 26 -3.3 39 39 SE 10 17 30.46 1032 10 16 N/A
11:56 am 11:56 Sunny 55 12.8 25 -3.9 31 31 S 7 11 30.45 1031 10 16 N/A
12:56 pm 12:56 Sunny 59 15 28 -2.2 31 31 ESE 8 13 30.42 1030 10 16 N/A
1:56 pm 13:56 Sunny 61 16.1 22 -5.6 22 22 SE 9 15 30.40 1029 10 16 N/A
2:56 pm 14:56 Sunny 63 17.2 23 -5 22 22 ESE 12 19 30.37 1028 10 16 N/A
3:56 pm 15:56 Sunny 63 17.2 24 -4.4 23 23 ESE 15 24 30.35 1028 10 16 N/A
4:56 pm 16:56 Sunny 64 17.8 26 -3.3 24 24 ESE 12 19 30.32 1027 10 16 N/A
5:56 pm 17:56 Sunny 63 17.2 28 -2.2 27 27 SE 10 17 30.31 1026 10 16 N/A
6:56 pm 18:56 Sunny 60 15.6 32 undefined 35 35 ESE 9 15 30.30 1026 10 16 N/A
7:56 pm 19:56 Clear 52 11.1 33 0.6 49 49 ESE 7 11 30.31 1026 10 16 N/A
8:56 pm 20:56 Clear 47 8.3 33 0.6 59 59 E 5 7 30.30 1026 10 16 N/A
9:56 pm 21:56 Clear 42 5.6 34 1.1 73 73 E 7 11 30.29 1026 10 16 N/A
10:56 pm 22:56 Clear 47 8.3 35 1.7 63 63 SE 8 13 30.27 1025 10 16 N/A
11:56 pm 23:56 Clear 46 7.8 34 1.1 63 63 SE 5 7 30.26 1025 10 16 N/A

Powered by AerisWeather